TimeEDT,TemperatureF,Dew PointF,Humidity,Sea Level PressureIn,VisibilityMPH,Wind Direction,Wind SpeedMPH,Gust SpeedMPH,PrecipitationIn,Events,Conditions,WindDirDegrees,DateUTC
12:53 AM,75.9,73.0,91,29.96,10.0,North,11.5,-,N/A,,Clear,10,2012-10-07 04:53:00
1:53 AM,75.0,72.0,90,29.95,10.0,NNE,6.9,-,N/A,,Partly Cloudy,20,2012-10-07 05:53:00
2:53 AM,75.0,72.0,90,29.92,10.0,East,5.8,-,N/A,,Clear,100,2012-10-07 06:53:00
3:53 AM,75.9,73.0,91,29.89,10.0,Calm,Calm,-,N/A,,Clear,0,2012-10-07 07:53:00
4:53 AM,75.9,73.0,91,29.90,10.0,Calm,Calm,-,N/A,,Clear,0,2012-10-07 08:53:00
5:53 AM,75.9,73.0,91,29.91,10.0,North,5.8,-,N/A,,Clear,350,2012-10-07 09:53:00
6:53 AM,75.9,73.0,91,29.93,10.0,North,4.6,-,N/A,,Clear,350,2012-10-07 10:53:00
7:53 AM,75.9,73.0,91,29.94,10.0,NNE,5.8,-,N/A,,Clear,20,2012-10-07 11:53:00
8:53 AM,79.0,75.0,88,29.96,10.0,NNE,4.6,-,N/A,,Clear,20,2012-10-07 12:53:00
9:53 AM,82.9,75.9,79,29.97,10.0,NNE,6.9,-,N/A,,Scattered Clouds,20,2012-10-07 13:53:00
10:53 AM,82.0,75.0,79,29.99,10.0,NE,8.1,-,N/A,,Scattered Clouds,50,2012-10-07 14:53:00
11:53 AM,82.0,75.0,79,29.99,10.0,ESE,3.5,-,0.00,Rain,Light Rain,120,2012-10-07 15:53:00
12:53 PM,82.9,73.9,74,29.97,10.0,ENE,8.1,-,0.00,,Partly Cloudy,60,2012-10-07 16:53:00
1:49 PM,80.6,71.6,74,29.96,10.0,SSE,11.5,-,N/A,,Partly Cloudy,150,2012-10-07 17:49:00
1:53 PM,80.1,71.1,74,29.96,10.0,SSE,9.2,-,N/A,,Clear,150,2012-10-07 17:53:00
2:53 PM,84.9,75.0,72,29.93,10.0,NE,9.2,-,0.00,,Partly Cloudy,50,2012-10-07 18:53:00
3:53 PM,84.0,73.9,72,29.93,10.0,East,10.4,-,N/A,,Scattered Clouds,80,2012-10-07 19:53:00
4:53 PM,82.9,73.9,74,29.94,10.0,ENE,6.9,-,N/A,,Scattered Clouds,60,2012-10-07 20:53:00
5:53 PM,81.0,75.0,82,29.94,6.0,NNE,3.5,-,0.01,Rain,Light Rain,20,2012-10-07 21:53:00
6:33 PM,80.6,75.2,84,29.95,10.0,Calm,Calm,-,0.00,,Mostly Cloudy,0,2012-10-07 22:33:00
6:49 PM,80.6,75.2,84,29.95,9.0,ENE,3.5,-,0.00,Rain,Light Rain,60,2012-10-07 22:49:00
6:53 PM,80.1,75.9,87,29.96,9.0,ENE,3.5,-,0.00,Rain,Light Rain,60,2012-10-07 22:53:00
7:53 PM,80.1,77.0,90,29.96,9.0,NNE,3.5,-,0.03,Rain,Light Rain,20,2012-10-07 23:53:00
8:53 PM,79.0,75.9,90,29.98,9.0,ENE,4.6,-,0.00,,Clear,60,2012-10-08 00:53:00
9:53 PM,79.0,75.9,90,30.00,10.0,NNE,3.5,-,N/A,,Clear,30,2012-10-08 01:53:00
10:53 PM,79.0,75.9,90,29.99,7.0,Calm,Calm,-,N/A,,Partly Cloudy,0,2012-10-08 02:53:00
11:53 PM,77.0,75.9,96,29.97,8.0,Calm,Calm,-,N/A,,Clear,0,2012-10-08 03:53:00